DLH6142 SLVR-SBEG

Flight info

Callsign DLH6142
Flight time 2h 19m
Altitude 37000
Route PAKES DCT NILSO UL322 ANRIB DCT ISIPA DCT IRUMO
Aircraft B738/M-SDE2E3FGHIRWXY/LB1

Departure

Time 2026-05-06 01:43
Airport Viru Viru International Airport (SLVR)

Arrival

Time 2026-05-06 04:03
Airport Eduardo Gomes International Airport (SBEG)
Time Latitude Longitude Altitude Speed Heading
2026-05-06 01:27 -17.64773 -63.13948 1230 ft 0 kts 146°
2026-05-06 01:32 -17.64765 -63.13954 1230 ft 2 kts 131°
2026-05-06 01:33 -17.64757 -63.13968 1230 ft 2 kts 72°
2026-05-06 01:33 -17.64758 -63.13972 1230 ft 0 kts 53°
2026-05-06 01:37 -17.64742 -63.13948 1230 ft 6 kts 57°
2026-05-06 01:37 -17.64724 -63.13904 1230 ft 5 kts 93°
2026-05-06 01:37 -17.64748 -63.13878 1230 ft 7 kts 148°
2026-05-06 01:37 -17.64803 -63.13845 1230 ft 11 kts 153°
2026-05-06 01:38 -17.64872 -63.13795 1230 ft 12 kts 125°
2026-05-06 01:38 -17.64862 -63.13721 1231 ft 11 kts 60°
2026-05-06 01:38 -17.64822 -63.13654 1231 ft 11 kts 56°
2026-05-06 01:38 -17.64789 -63.13598 1231 ft 8 kts 73°
2026-05-06 01:39 -17.64812 -63.13552 1231 ft 8 kts 142°
2026-05-06 01:39 -17.64864 -63.13514 1231 ft 12 kts 147°
2026-05-06 01:39 -17.64949 -63.13455 1231 ft 17 kts 146°
2026-05-06 01:39 -17.65051 -63.13385 1231 ft 17 kts 147°
2026-05-06 01:40 -17.65149 -63.13322 1231 ft 16 kts 149°
2026-05-06 01:40 -17.65242 -63.13260 1231 ft 16 kts 147°
2026-05-06 01:40 -17.65332 -63.13201 1231 ft 15 kts 148°
2026-05-06 01:40 -17.65417 -63.13144 1232 ft 14 kts 147°
2026-05-06 01:41 -17.65499 -63.13088 1232 ft 14 kts 147°
2026-05-06 01:41 -17.65577 -63.13035 1232 ft 13 kts 147°
2026-05-06 01:41 -17.65666 -63.12975 1232 ft 17 kts 147°
2026-05-06 01:41 -17.65770 -63.12905 1232 ft 15 kts 147°
2026-05-06 01:42 -17.65854 -63.12841 1232 ft 15 kts 133°
2026-05-06 01:42 -17.65859 -63.12756 1233 ft 12 kts 63°
2026-05-06 01:42 -17.65813 -63.12687 1233 ft 11 kts 38°
2026-05-06 01:42 -17.65744 -63.12691 1239 ft 10 kts 329°
2026-05-06 01:43 -17.65578 -63.12804 1240 ft 65 kts 328°
2026-05-06 01:43 -17.64975 -63.13206 1230 ft 138 kts 327°
2026-05-06 01:43 -17.64026 -63.13816 1561 ft 172 kts 330°
2026-05-06 01:43 -17.63021 -63.14531 2467 ft 175 kts 324°
2026-05-06 01:44 -17.62095 -63.15315 3444 ft 178 kts 322°
2026-05-06 01:44 -17.61107 -63.16204 3793 ft 198 kts 321°
2026-05-06 01:44 -17.60031 -63.17189 4258 ft 210 kts 319°
2026-05-06 01:44 -17.58949 -63.18272 4796 ft 223 kts 315°
2026-05-06 01:45 -17.57880 -63.19512 5262 ft 238 kts 310°
2026-05-06 01:45 -17.56851 -63.20866 6109 ft 239 kts 308°
2026-05-06 01:45 -17.55889 -63.22305 6842 ft 244 kts 303°
2026-05-06 01:45 -17.54996 -63.23837 7538 ft 251 kts 303°
2026-05-06 01:46 -17.54063 -63.25423 8159 ft 260 kts 303°
2026-05-06 01:46 -17.53111 -63.27050 8900 ft 263 kts 303°
2026-05-06 01:46 -17.52130 -63.28705 9510 ft 273 kts 304°
2026-05-06 01:46 -17.51123 -63.30384 10269 ft 270 kts 303°
2026-05-06 01:47 -17.50123 -63.32055 10949 ft 274 kts 304°
2026-05-06 01:47 -17.49082 -63.33744 11519 ft 279 kts 304°
2026-05-06 01:47 -17.48019 -63.35464 12128 ft 283 kts 304°
2026-05-06 01:47 -17.46941 -63.37218 12656 ft 291 kts 304°
2026-05-06 01:48 -17.45833 -63.39026 13143 ft 299 kts 303°
2026-05-06 01:48 -17.44698 -63.40883 13652 ft 307 kts 303°
2026-05-06 01:48 -17.43533 -63.42796 14080 ft 316 kts 303°
2026-05-06 01:48 -17.42335 -63.44764 14494 ft 324 kts 303°
2026-05-06 01:49 -17.41110 -63.46776 14920 ft 332 kts 303°
2026-05-06 01:49 -17.39856 -63.48837 15346 ft 340 kts 303°
2026-05-06 01:49 -17.38571 -63.50948 15726 ft 348 kts 303°
2026-05-06 01:49 -17.37252 -63.53115 16103 ft 357 kts 303°
2026-05-06 01:50 -17.35902 -63.55331 16467 ft 366 kts 303°
2026-05-06 01:50 -17.34333 -63.57445 16808 ft 372 kts 320°
2026-05-06 01:50 -17.32125 -63.58840 17196 ft 374 kts 340°
2026-05-06 01:50 -17.29653 -63.59742 17597 ft 379 kts 343°
2026-05-06 01:51 -17.27119 -63.60586 17982 ft 385 kts 344°
2026-05-06 01:51 -17.24548 -63.61422 18352 ft 390 kts 344°
2026-05-06 01:51 -17.21941 -63.62275 18684 ft 394 kts 343°
2026-05-06 01:51 -17.19322 -63.63145 19002 ft 395 kts 343°
2026-05-06 01:52 -17.16701 -63.64027 19351 ft 397 kts 343°
2026-05-06 01:52 -17.14073 -63.64918 19678 ft 397 kts 343°
2026-05-06 01:52 -17.11443 -63.65814 20022 ft 398 kts 343°
2026-05-06 01:52 -17.08798 -63.66717 20378 ft 401 kts 343°
2026-05-06 01:53 -17.06131 -63.67629 20733 ft 405 kts 343°
2026-05-06 01:53 -17.03442 -63.68548 21100 ft 408 kts 343°
2026-05-06 01:53 -17.00732 -63.69474 21458 ft 411 kts 342°
2026-05-06 01:53 -16.98004 -63.70406 21824 ft 414 kts 342°
2026-05-06 01:54 -16.95260 -63.71343 22188 ft 416 kts 342°
2026-05-06 01:54 -16.92539 -63.72272 22563 ft 417 kts 342°
2026-05-06 01:54 -16.89737 -63.73228 22951 ft 419 kts 342°
2026-05-06 01:54 -16.86961 -63.74175 23335 ft 421 kts 342°
2026-05-06 01:55 -16.84173 -63.75125 23691 ft 422 kts 342°
2026-05-06 01:55 -16.81384 -63.76076 24014 ft 423 kts 342°
2026-05-06 01:55 -16.78622 -63.77017 24322 ft 424 kts 342°
2026-05-06 01:55 -16.75812 -63.77975 24631 ft 425 kts 342°
2026-05-06 01:56 -16.72994 -63.78935 24940 ft 427 kts 342°
2026-05-06 01:56 -16.70164 -63.79898 25266 ft 428 kts 342°
2026-05-06 01:56 -16.67332 -63.80863 25586 ft 429 kts 342°
2026-05-06 01:56 -16.64488 -63.81830 25910 ft 430 kts 342°
2026-05-06 01:57 -16.61637 -63.82800 26238 ft 431 kts 342°
2026-05-06 01:57 -16.58785 -63.83770 26561 ft 431 kts 342°
2026-05-06 01:57 -16.55928 -63.84742 26897 ft 432 kts 342°
2026-05-06 01:57 -16.53066 -63.85704 27228 ft 433 kts 344°
2026-05-06 01:58 -16.50087 -63.86101 27532 ft 434 kts
2026-05-06 01:58 -16.47134 -63.85533 27903 ft 434 kts 18°
2026-05-06 01:58 -16.44431 -63.84153 28245 ft 435 kts 34°
2026-05-06 01:58 -16.42019 -63.82251 28633 ft 435 kts 37°
2026-05-06 01:59 -16.39660 -63.80277 28990 ft 435 kts 38°
2026-05-06 01:59 -16.37316 -63.78280 29336 ft 435 kts 38°
2026-05-06 01:59 -16.34972 -63.76286 29704 ft 435 kts 38°
2026-05-06 01:59 -16.32619 -63.74300 30064 ft 435 kts 38°
2026-05-06 02:00 -16.30257 -63.72324 30383 ft 435 kts 37°
2026-05-06 02:00 -16.27892 -63.70358 30698 ft 435 kts 37°
2026-05-06 02:00 -16.25528 -63.68401 31014 ft 435 kts 37°
2026-05-06 02:00 -16.23158 -63.66444 31340 ft 434 kts 37°
2026-05-06 02:01 -16.20794 -63.64495 31664 ft 433 kts 37°
2026-05-06 02:01 -16.18432 -63.62548 31993 ft 432 kts 36°
2026-05-06 02:01 -16.16072 -63.60604 32283 ft 433 kts 36°
2026-05-06 02:01 -16.13741 -63.58684 32576 ft 433 kts 36°
2026-05-06 02:02 -16.11379 -63.56739 32863 ft 433 kts 36°
2026-05-06 02:02 -16.09022 -63.54799 33167 ft 433 kts 36°
2026-05-06 02:02 -16.06664 -63.52857 33463 ft 432 kts 36°
2026-05-06 02:02 -16.04306 -63.50917 33767 ft 432 kts 36°
2026-05-06 02:03 -16.01956 -63.48983 34057 ft 431 kts 36°
2026-05-06 02:03 -15.99604 -63.47049 34320 ft 430 kts 36°
2026-05-06 02:03 -15.97262 -63.45122 34584 ft 429 kts 36°
2026-05-06 02:03 -15.94923 -63.43199 34810 ft 429 kts 36°
2026-05-06 02:04 -15.92585 -63.41279 34991 ft 430 kts 36°
2026-05-06 02:04 -15.90221 -63.39338 34964 ft 436 kts 36°
2026-05-06 02:04 -15.85418 -63.35396 34992 ft 444 kts 36°
2026-05-06 02:05 -15.80515 -63.31374 34993 ft 453 kts 36°
2026-05-06 02:05 -15.75518 -63.27275 34996 ft 462 kts 36°
2026-05-06 02:06 -15.70438 -63.23111 34973 ft 469 kts 36°
2026-05-06 02:06 -15.65300 -63.18903 34974 ft 472 kts 36°
2026-05-06 02:07 -15.60131 -63.14671 34978 ft 474 kts 36°
2026-05-06 02:07 -15.54952 -63.10434 34977 ft 474 kts 36°
2026-05-06 02:08 -15.49774 -63.06201 34981 ft 473 kts 36°
2026-05-06 02:08 -15.44620 -63.01991 34983 ft 471 kts 36°
2026-05-06 02:09 -15.39481 -62.97795 34995 ft 469 kts 37°
2026-05-06 02:09 -15.34365 -62.93622 34986 ft 467 kts 37°
2026-05-06 02:10 -15.29265 -62.89464 34989 ft 466 kts 37°
2026-05-06 02:10 -15.24184 -62.85324 35000 ft 464 kts 37°
2026-05-06 02:11 -15.19106 -62.81188 34985 ft 464 kts 37°
2026-05-06 02:11 -15.14893 -62.77759 35000 ft 464 kts 37°
2026-05-06 02:12 -15.08958 -62.72932 34990 ft 465 kts 37°
2026-05-06 02:12 -15.04506 -62.69844 34999 ft 462 kts 24°
2026-05-06 02:13 -14.98440 -62.67766 34996 ft 459 kts
2026-05-06 02:13 -14.92131 -62.66676 34996 ft 460 kts
2026-05-06 02:14 -14.85802 -62.65615 34994 ft 461 kts
2026-05-06 02:14 -14.79461 -62.64510 34999 ft 462 kts
2026-05-06 02:15 -14.73120 -62.63379 35000 ft 463 kts
2026-05-06 02:15 -14.66774 -62.62242 34998 ft 463 kts
2026-05-06 02:16 -14.60419 -62.61105 34995 ft 463 kts
2026-05-06 02:16 -14.54114 -62.59979 34996 ft 463 kts
2026-05-06 02:17 -14.47777 -62.58848 34996 ft 462 kts
2026-05-06 02:17 -14.41444 -62.57719 34996 ft 461 kts
2026-05-06 02:18 -14.35120 -62.56592 34997 ft 460 kts
2026-05-06 02:18 -14.28807 -62.55467 35002 ft 460 kts
2026-05-06 02:19 -14.22498 -62.54344 35000 ft 459 kts
2026-05-06 02:19 -14.16207 -62.53225 35001 ft 459 kts
2026-05-06 02:20 -14.06764 -62.51545 35001 ft 458 kts
2026-05-06 02:21 -14.00483 -62.50429 34998 ft 458 kts
2026-05-06 02:21 -13.94198 -62.49313 34997 ft 458 kts
2026-05-06 02:22 -13.87946 -62.48203 35001 ft 458 kts
2026-05-06 02:22 -13.81660 -62.47088 35005 ft 459 kts
2026-05-06 02:23 -13.75371 -62.45973 35005 ft 459 kts
2026-05-06 02:23 -13.69078 -62.44852 35006 ft 459 kts
2026-05-06 02:24 -13.62784 -62.43725 35004 ft 459 kts
2026-05-06 02:24 -13.56490 -62.42599 35005 ft 459 kts
2026-05-06 02:25 -13.50188 -62.41472 35008 ft 459 kts
2026-05-06 02:25 -13.43893 -62.40348 35010 ft 459 kts
2026-05-06 02:26 -13.37598 -62.39224 35007 ft 459 kts
2026-05-06 02:26 -13.31307 -62.38101 35010 ft 459 kts
2026-05-06 02:27 -13.25017 -62.36979 35007 ft 459 kts
2026-05-06 02:27 -13.18725 -62.35857 35013 ft 459 kts
2026-05-06 02:28 -13.12472 -62.34725 35008 ft 459 kts 10°
2026-05-06 02:28 -13.06156 -62.33514 35007 ft 459 kts 10°
2026-05-06 02:29 -12.99928 -62.32314 35012 ft 459 kts 10°
2026-05-06 02:29 -12.93656 -62.31115 35013 ft 458 kts 10°
2026-05-06 02:30 -12.87383 -62.29920 35011 ft 458 kts 10°
2026-05-06 02:30 -12.81106 -62.28725 35012 ft 458 kts 10°
2026-05-06 02:31 -12.74834 -62.27531 35010 ft 458 kts 10°
2026-05-06 02:31 -12.68562 -62.26336 35013 ft 458 kts 10°
2026-05-06 02:32 -12.62290 -62.25138 35012 ft 458 kts 10°
2026-05-06 02:32 -12.56021 -62.23941 35017 ft 458 kts 11°
2026-05-06 02:33 -12.49752 -62.22745 35021 ft 459 kts 10°
2026-05-06 02:33 -12.47675 -62.22350 35020 ft 459 kts 10°
2026-05-06 02:34 -12.37242 -62.20361 35025 ft 459 kts 10°
2026-05-06 02:34 -12.30965 -62.19165 35029 ft 459 kts 10°
2026-05-06 02:35 -12.24682 -62.17969 35024 ft 459 kts 10°
2026-05-06 02:35 -12.18401 -62.16771 35033 ft 459 kts 10°
2026-05-06 02:36 -12.12123 -62.15573 35030 ft 459 kts 10°
2026-05-06 02:36 -12.05845 -62.14375 35037 ft 458 kts 10°
2026-05-06 02:37 -11.99578 -62.13181 35033 ft 458 kts 10°
2026-05-06 02:37 -11.93311 -62.11987 35037 ft 458 kts 10°
2026-05-06 02:38 -11.87049 -62.10794 35038 ft 457 kts 10°
2026-05-06 02:38 -11.80793 -62.09603 35040 ft 457 kts 10°
2026-05-06 02:39 -11.74534 -62.08414 35035 ft 457 kts 10°
2026-05-06 02:39 -11.68260 -62.07377 35034 ft 457 kts
2026-05-06 02:40 -11.61977 -62.06411 35029 ft 457 kts
2026-05-06 02:40 -11.55701 -62.05427 35031 ft 456 kts
2026-05-06 02:41 -11.49421 -62.04428 35036 ft 456 kts
2026-05-06 02:41 -11.43140 -62.03427 35031 ft 457 kts
2026-05-06 02:42 -11.36899 -62.02434 35032 ft 457 kts
2026-05-06 02:42 -11.30617 -62.01435 35038 ft 457 kts
2026-05-06 02:43 -11.24321 -62.00432 35034 ft 458 kts
2026-05-06 02:43 -11.18020 -61.99429 35032 ft 458 kts
2026-05-06 02:44 -11.11720 -61.98426 35030 ft 459 kts
2026-05-06 02:44 -11.05410 -61.97422 35034 ft 459 kts
2026-05-06 02:45 -10.99105 -61.96419 35033 ft 459 kts
2026-05-06 02:45 -10.92803 -61.95405 35015 ft 459 kts
2026-05-06 02:46 -10.86518 -61.94302 35030 ft 458 kts 12°
2026-05-06 02:46 -10.80323 -61.92816 35028 ft 457 kts 14°
2026-05-06 02:47 -10.74159 -61.91244 35022 ft 456 kts 14°
2026-05-06 02:47 -10.67998 -61.89705 35026 ft 456 kts 13°
2026-05-06 02:48 -10.61865 -61.88203 35028 ft 456 kts 13°
2026-05-06 02:48 -10.55701 -61.86703 35028 ft 455 kts 13°
2026-05-06 02:49 -10.49538 -61.85204 35030 ft 456 kts 13°
2026-05-06 02:49 -10.43370 -61.83703 35027 ft 456 kts 13°
2026-05-06 02:50 -10.37205 -61.82203 35029 ft 456 kts 13°
2026-05-06 02:50 -10.31033 -61.80701 35031 ft 456 kts 13°
2026-05-06 02:51 -10.24861 -61.79201 35033 ft 456 kts 13°
2026-05-06 02:51 -10.18683 -61.77699 35029 ft 456 kts 13°
2026-05-06 02:52 -10.12506 -61.76198 35031 ft 457 kts 13°
2026-05-06 02:52 -10.06311 -61.74694 35028 ft 457 kts 13°
2026-05-06 02:53 -10.00119 -61.73191 35027 ft 458 kts 13°
2026-05-06 02:53 -9.93923 -61.71687 35028 ft 458 kts 13°
2026-05-06 02:54 -9.87725 -61.70183 35026 ft 458 kts 13°
2026-05-06 02:54 -9.81569 -61.68690 35027 ft 458 kts 13°
2026-05-06 02:55 -9.75368 -61.67185 35027 ft 458 kts 13°
2026-05-06 02:55 -9.69170 -61.65671 35027 ft 458 kts 13°
2026-05-06 02:56 -9.62970 -61.64157 35026 ft 458 kts 13°
2026-05-06 02:56 -9.56760 -61.62688 35021 ft 458 kts 13°
2026-05-06 02:57 -9.50541 -61.61301 35025 ft 457 kts 12°
2026-05-06 02:57 -9.44321 -61.59913 35023 ft 457 kts 13°
2026-05-06 02:58 -9.38119 -61.58518 35020 ft 457 kts 13°
2026-05-06 02:58 -9.31915 -61.57118 35022 ft 456 kts 13°
2026-05-06 02:59 -9.26766 -61.55957 35021 ft 456 kts 13°
2026-05-06 02:59 -9.20574 -61.54561 35027 ft 456 kts 13°
2026-05-06 03:00 -9.14384 -61.53163 35028 ft 456 kts 13°
2026-05-06 03:00 -9.08193 -61.51746 35023 ft 456 kts 13°
2026-05-06 03:01 -9.02001 -61.50325 35022 ft 456 kts 13°
2026-05-06 03:01 -8.95819 -61.48910 35021 ft 456 kts 13°
2026-05-06 03:02 -8.89635 -61.47496 35025 ft 455 kts 13°
2026-05-06 03:02 -8.83452 -61.46082 35016 ft 456 kts 13°
2026-05-06 03:03 -8.77262 -61.44668 35023 ft 456 kts 13°
2026-05-06 03:03 -8.71075 -61.43254 35023 ft 456 kts 13°
2026-05-06 03:04 -8.64901 -61.41845 35031 ft 456 kts 13°
2026-05-06 03:04 -8.58738 -61.40438 35007 ft 457 kts 13°
2026-05-06 03:05 -8.52542 -61.39023 35020 ft 456 kts 13°
2026-05-06 03:05 -8.46351 -61.37611 35022 ft 456 kts 13°
2026-05-06 03:06 -8.40155 -61.36197 35023 ft 456 kts 13°
2026-05-06 03:06 -8.33966 -61.34786 35021 ft 456 kts 13°
2026-05-06 03:07 -8.27784 -61.33377 35017 ft 455 kts 13°
2026-05-06 03:07 -8.21605 -61.31969 35021 ft 455 kts 13°
2026-05-06 03:08 -8.15433 -61.30562 35021 ft 455 kts 13°
2026-05-06 03:08 -8.09262 -61.29155 35024 ft 455 kts 13°
2026-05-06 03:09 -8.03088 -61.27749 35020 ft 455 kts 13°
2026-05-06 03:09 -7.96920 -61.26344 35018 ft 455 kts 13°
2026-05-06 03:10 -7.90753 -61.24940 35017 ft 455 kts 13°
2026-05-06 03:10 -7.84572 -61.23532 35012 ft 455 kts 12°
2026-05-06 03:11 -7.78392 -61.22127 35024 ft 455 kts 13°
2026-05-06 03:11 -7.72204 -61.20722 35014 ft 456 kts 13°
2026-05-06 03:12 -7.66017 -61.19320 35018 ft 455 kts 13°
2026-05-06 03:12 -7.59836 -61.17918 35024 ft 455 kts 13°
2026-05-06 03:13 -7.53704 -61.16527 35013 ft 455 kts 13°
2026-05-06 03:13 -7.47528 -61.15127 35021 ft 454 kts 13°
2026-05-06 03:14 -7.41364 -61.13730 35019 ft 454 kts 13°
2026-05-06 03:14 -7.35199 -61.12333 35016 ft 454 kts 13°
2026-05-06 03:15 -7.29040 -61.10938 35014 ft 453 kts 13°
2026-05-06 03:15 -7.22889 -61.09545 35012 ft 453 kts 13°
2026-05-06 03:16 -7.16731 -61.08151 35007 ft 453 kts 13°
2026-05-06 03:16 -7.10576 -61.06758 35018 ft 453 kts 13°
2026-05-06 03:17 -7.04420 -61.05365 35016 ft 453 kts 13°
2026-05-06 03:17 -6.98261 -61.03971 35014 ft 453 kts 13°
2026-05-06 03:18 -6.92149 -61.02589 35015 ft 453 kts 13°
2026-05-06 03:18 -6.85994 -61.01198 35019 ft 453 kts 13°
2026-05-06 03:19 -6.79829 -60.99804 35021 ft 454 kts 13°
2026-05-06 03:19 -6.73666 -60.98412 35023 ft 454 kts 13°
2026-05-06 03:20 -6.64408 -60.96320 35017 ft 454 kts 13°
2026-05-06 03:20 -6.58237 -60.94926 35015 ft 454 kts 13°
2026-05-06 03:21 -6.52063 -60.93532 35017 ft 454 kts 13°
2026-05-06 03:21 -6.45897 -60.92140 35016 ft 454 kts 13°
2026-05-06 03:22 -6.39729 -60.90748 35014 ft 454 kts 13°
2026-05-06 03:22 -6.33559 -60.89356 35013 ft 454 kts 13°
2026-05-06 03:23 -6.27394 -60.87948 35018 ft 454 kts 13°
2026-05-06 03:23 -6.21248 -60.86501 35011 ft 454 kts 13°
2026-05-06 03:24 -6.15107 -60.85052 35019 ft 454 kts 13°
2026-05-06 03:24 -6.08961 -60.83607 35012 ft 453 kts 13°
2026-05-06 03:25 -6.02816 -60.82166 35017 ft 453 kts 13°
2026-05-06 03:25 -5.96672 -60.80726 35015 ft 453 kts 13°
2026-05-06 03:26 -5.90569 -60.79295 35023 ft 453 kts 13°
2026-05-06 03:26 -5.84427 -60.77855 35019 ft 453 kts 13°
2026-05-06 03:27 -5.78285 -60.76416 35021 ft 453 kts 13°
2026-05-06 03:27 -5.72144 -60.74977 35017 ft 453 kts 13°
2026-05-06 03:28 -5.66005 -60.73535 35020 ft 453 kts 15°
2026-05-06 03:28 -5.60225 -60.71086 35015 ft 452 kts 31°
2026-05-06 03:29 -5.55232 -60.67260 35020 ft 452 kts 39°
2026-05-06 03:29 -5.50379 -60.63238 35015 ft 452 kts 39°
2026-05-06 03:30 -5.45514 -60.59239 35021 ft 453 kts 39°
2026-05-06 03:30 -5.40622 -60.55257 35019 ft 453 kts 39°
2026-05-06 03:31 -5.35722 -60.51284 35015 ft 453 kts 39°
2026-05-06 03:31 -5.30817 -60.47309 35024 ft 453 kts 39°
2026-05-06 03:32 -5.25941 -60.43357 35020 ft 453 kts 39°
2026-05-06 03:32 -5.21000 -60.39352 35024 ft 454 kts 39°
2026-05-06 03:33 -5.16127 -60.35404 34650 ft 452 kts 39°
2026-05-06 03:33 -5.13699 -60.33437 34295 ft 446 kts 39°
2026-05-06 03:33 -5.11303 -60.31496 33919 ft 440 kts 39°
2026-05-06 03:34 -5.08939 -60.29581 33508 ft 434 kts 39°
2026-05-06 03:34 -5.06600 -60.27687 33109 ft 430 kts 39°
2026-05-06 03:34 -5.04281 -60.25809 32710 ft 426 kts 39°
2026-05-06 03:34 -5.01985 -60.23949 32314 ft 423 kts 40°
2026-05-06 03:35 -4.99703 -60.22101 31938 ft 421 kts 40°
2026-05-06 03:35 -4.97428 -60.20260 31560 ft 418 kts 40°
2026-05-06 03:35 -4.95174 -60.18435 31189 ft 416 kts 40°
2026-05-06 03:35 -4.92925 -60.16614 30822 ft 415 kts 40°
2026-05-06 03:36 -4.90664 -60.14783 30474 ft 424 kts 40°
2026-05-06 03:36 -4.88327 -60.12890 30138 ft 441 kts 40°
2026-05-06 03:36 -4.85902 -60.10924 29730 ft 450 kts 40°
2026-05-06 03:36 -4.83472 -60.08959 29292 ft 446 kts 40°
2026-05-06 03:37 -4.81075 -60.07022 28877 ft 439 kts 40°
2026-05-06 03:37 -4.78715 -60.05113 28413 ft 433 kts 40°
2026-05-06 03:37 -4.76385 -60.03229 27960 ft 428 kts 40°
2026-05-06 03:37 -4.74082 -60.01366 27518 ft 424 kts 40°
2026-05-06 03:38 -4.71791 -59.99512 27084 ft 420 kts 40°
2026-05-06 03:38 -4.69526 -59.97679 26655 ft 417 kts 40°
2026-05-06 03:38 -4.67274 -59.95857 26234 ft 415 kts 40°
2026-05-06 03:38 -4.65067 -59.94072 25862 ft 411 kts 40°
2026-05-06 03:39 -4.62810 -59.92335 25486 ft 410 kts 32°
2026-05-06 03:39 -4.60187 -59.91231 25129 ft 411 kts 15°
2026-05-06 03:39 -4.57348 -59.90932 24769 ft 413 kts 359°
2026-05-06 03:39 -4.54487 -59.91158 24441 ft 412 kts 356°
2026-05-06 03:40 -4.51636 -59.91457 24095 ft 411 kts 355°
2026-05-06 03:40 -4.48792 -59.91771 23749 ft 411 kts 355°
2026-05-06 03:40 -4.45955 -59.92075 23367 ft 410 kts 356°
2026-05-06 03:40 -4.43117 -59.92366 22963 ft 409 kts 356°
2026-05-06 03:41 -4.40281 -59.92646 22556 ft 408 kts 356°
2026-05-06 03:41 -4.37461 -59.92917 22156 ft 407 kts 356°
2026-05-06 03:41 -4.34646 -59.93184 21763 ft 405 kts 356°
2026-05-06 03:41 -4.31854 -59.93447 21373 ft 403 kts 356°
2026-05-06 03:42 -4.29071 -59.93710 20988 ft 400 kts 356°
2026-05-06 03:42 -4.26308 -59.93970 20610 ft 397 kts 356°
2026-05-06 03:42 -4.23561 -59.94229 20232 ft 395 kts 356°
2026-05-06 03:42 -4.20837 -59.94486 19863 ft 392 kts 356°
2026-05-06 03:43 -4.18127 -59.94742 19500 ft 390 kts 356°
2026-05-06 03:43 -4.15436 -59.94996 19135 ft 387 kts 356°
2026-05-06 03:43 -4.12763 -59.95249 18777 ft 385 kts 356°
2026-05-06 03:43 -4.10103 -59.95500 18435 ft 383 kts 356°
2026-05-06 03:44 -4.07458 -59.95749 18028 ft 381 kts 356°
2026-05-06 03:44 -4.04817 -59.95996 17630 ft 379 kts 356°
2026-05-06 03:44 -4.02199 -59.96241 17232 ft 377 kts 356°
2026-05-06 03:44 -3.99592 -59.96485 16839 ft 375 kts 356°
2026-05-06 03:45 -3.96997 -59.96728 16450 ft 373 kts 356°
2026-05-06 03:45 -3.94418 -59.96970 16067 ft 371 kts 356°
2026-05-06 03:45 -3.91850 -59.97210 15683 ft 370 kts 356°
2026-05-06 03:45 -3.89329 -59.97446 15316 ft 368 kts 356°
2026-05-06 03:46 -3.86786 -59.97685 14957 ft 364 kts 356°
2026-05-06 03:46 -3.84286 -59.97919 14634 ft 359 kts 356°
2026-05-06 03:46 -3.81817 -59.98151 14313 ft 354 kts 356°
2026-05-06 03:46 -3.79373 -59.98379 14008 ft 350 kts 357°
2026-05-06 03:47 -3.76969 -59.98605 13728 ft 344 kts 357°
2026-05-06 03:47 -3.74628 -59.98824 13407 ft 332 kts 357°
2026-05-06 03:47 -3.72371 -59.99037 13089 ft 320 kts 357°
2026-05-06 03:47 -3.70201 -59.99341 12768 ft 312 kts 345°
2026-05-06 03:48 -3.68189 -60.00129 12493 ft 309 kts 339°
2026-05-06 03:48 -3.66226 -60.00998 12193 ft 307 kts 338°
2026-05-06 03:48 -3.64937 -60.01574 12005 ft 306 kts 338°
2026-05-06 03:48 -3.62998 -60.02436 11718 ft 304 kts 338°
2026-05-06 03:49 -3.61064 -60.03287 11428 ft 302 kts 339°
2026-05-06 03:49 -3.59144 -60.04124 11144 ft 300 kts 339°
2026-05-06 03:49 -3.57231 -60.04954 10865 ft 299 kts 339°
2026-05-06 03:49 -3.55329 -60.05776 10589 ft 297 kts 339°
2026-05-06 03:50 -3.53431 -60.06595 10305 ft 296 kts 339°
2026-05-06 03:50 -3.51548 -60.07406 10034 ft 294 kts 339°
2026-05-06 03:50 -3.49670 -60.08215 9753 ft 293 kts 339°
2026-05-06 03:50 -3.47806 -60.09018 9442 ft 291 kts 339°
2026-05-06 03:51 -3.45952 -60.09817 9146 ft 290 kts 339°
2026-05-06 03:51 -3.44099 -60.10615 8852 ft 289 kts 339°
2026-05-06 03:51 -3.42280 -60.11398 8561 ft 288 kts 339°
2026-05-06 03:51 -3.40418 -60.12199 8252 ft 287 kts 339°
2026-05-06 03:52 -3.38588 -60.12987 7973 ft 286 kts 340°
2026-05-06 03:52 -3.36794 -60.13760 7690 ft 281 kts 340°
2026-05-06 03:52 -3.35019 -60.14525 7388 ft 275 kts 340°
2026-05-06 03:52 -3.33285 -60.15272 7103 ft 267 kts 340°
2026-05-06 03:53 -3.31619 -60.15991 6851 ft 255 kts 340°
2026-05-06 03:53 -3.30019 -60.16681 6560 ft 245 kts 340°
2026-05-06 03:53 -3.28489 -60.17310 6327 ft 231 kts 343°
2026-05-06 03:53 -3.27025 -60.17869 6082 ft 220 kts 343°
2026-05-06 03:54 -3.25628 -60.18396 5864 ft 209 kts 344°
2026-05-06 03:54 -3.24280 -60.18906 5648 ft 205 kts 344°
2026-05-06 03:54 -3.22957 -60.19405 5449 ft 202 kts 344°
2026-05-06 03:54 -3.21645 -60.19903 5208 ft 201 kts 344°
2026-05-06 03:55 -3.20340 -60.20400 4995 ft 200 kts 344°
2026-05-06 03:55 -3.19045 -60.20893 4787 ft 199 kts 344°
2026-05-06 03:55 -3.17752 -60.21386 4576 ft 200 kts 344°
2026-05-06 03:55 -3.16465 -60.21877 4344 ft 195 kts 344°
2026-05-06 03:56 -3.15218 -60.22354 4116 ft 189 kts 344°
2026-05-06 03:56 -3.14004 -60.22818 3890 ft 186 kts 343°
2026-05-06 03:56 -3.12810 -60.23334 3687 ft 187 kts 338°
2026-05-06 03:56 -3.11625 -60.23879 3454 ft 187 kts 341°
2026-05-06 03:57 -3.10409 -60.24343 3273 ft 188 kts 345°
2026-05-06 03:57 -3.09154 -60.24730 3065 ft 188 kts 348°
2026-05-06 03:57 -3.07919 -60.25042 2827 ft 182 kts 352°
2026-05-06 03:57 -3.06685 -60.25267 2638 ft 180 kts 356°
2026-05-06 03:58 -3.05480 -60.25112 2364 ft 172 kts 28°
2026-05-06 03:58 -3.04573 -60.24449 2171 ft 155 kts 52°
2026-05-06 03:58 -3.04018 -60.23519 2047 ft 159 kts 70°
2026-05-06 03:58 -3.03711 -60.22489 1998 ft 149 kts 85°
2026-05-06 03:59 -3.03759 -60.21460 2000 ft 148 kts 91°
2026-05-06 03:59 -3.03785 -60.20446 2000 ft 146 kts 90°
2026-05-06 03:59 -3.03800 -60.19430 2003 ft 146 kts 90°
2026-05-06 03:59 -3.03810 -60.18416 1988 ft 145 kts 90°
2026-05-06 04:00 -3.03817 -60.17417 1991 ft 143 kts 90°
2026-05-06 04:00 -3.03823 -60.16421 2009 ft 144 kts 89°
2026-05-06 04:00 -3.03831 -60.15408 1981 ft 146 kts 90°
2026-05-06 04:00 -3.03839 -60.14391 1823 ft 145 kts 89°
2026-05-06 04:01 -3.03843 -60.13378 1635 ft 146 kts 89°
2026-05-06 04:01 -3.03842 -60.12369 1446 ft 145 kts 88°
2026-05-06 04:01 -3.03831 -60.11353 1245 ft 148 kts 90°
2026-05-06 04:01 -3.03847 -60.10325 1067 ft 148 kts 89°
2026-05-06 04:02 -3.03845 -60.09289 921 ft 151 kts 88°
2026-05-06 04:02 -3.03844 -60.08228 678 ft 153 kts 90°
2026-05-06 04:02 -3.03856 -60.07181 451 ft 148 kts 89°
2026-05-06 04:02 -3.03858 -60.06149 307 ft 148 kts 89°
2026-05-06 04:03 -3.03858 -60.05215 267 ft 107 kts 90°
2026-05-06 04:03 -3.03857 -60.04800 268 ft 40 kts 90°
2026-05-06 04:03 -3.03858 -60.04571 269 ft 20 kts 90°
2026-05-06 04:03 -3.03859 -60.04439 269 ft 18 kts 90°
2026-05-06 04:04 -3.03860 -60.04317 268 ft 17 kts 90°
2026-05-06 04:04 -3.03861 -60.04201 268 ft 16 kts 90°
2026-05-06 04:04 -3.03861 -60.04090 268 ft 16 kts 90°
2026-05-06 04:04 -3.03861 -60.03983 268 ft 15 kts 90°
2026-05-06 04:05 -3.03861 -60.03880 267 ft 14 kts 88°
2026-05-06 04:05 -3.03831 -60.03790 267 ft 13 kts 44°
2026-05-06 04:05 -3.03802 -60.03771 268 ft 0 kts 18°
2026-05-06 04:06 -3.03797 -60.03770 268 ft 4 kts 13°
2026-05-06 04:06 -3.03751 -60.03774 268 ft 9 kts 343°
2026-05-06 04:06 -3.03691 -60.03827 268 ft 14 kts 296°
2026-05-06 04:06 -3.03662 -60.03925 267 ft 15 kts 285°
2026-05-06 04:07 -3.03636 -60.04021 267 ft 14 kts 285°
2026-05-06 04:07 -3.03611 -60.04112 267 ft 13 kts 285°
2026-05-06 04:07 -3.03585 -60.04199 267 ft 13 kts 291°
2026-05-06 04:07 -3.03543 -60.04277 267 ft 13 kts 306°
2026-05-06 04:08 -3.03482 -60.04337 267 ft 12 kts 326°
2026-05-06 04:08 -3.03405 -60.04371 267 ft 12 kts 342°
2026-05-06 04:08 -3.03342 -60.04410 267 ft 10 kts 299°
2026-05-06 04:08 -3.03341 -60.04476 267 ft 10 kts 259°
2026-05-06 04:09 -3.03353 -60.04543 267 ft 9 kts 260°
2026-05-06 04:09 -3.03358 -60.04606 267 ft 9 kts 270°
2026-05-06 04:09 -3.03337 -60.04660 267 ft 8 kts 318°
2026-05-06 04:09 -3.03292 -60.04666 267 ft 5 kts
2026-05-06 04:10 -3.03271 -60.04665 267 ft 0 kts